Time,TemperatureF,DewpointF,PressureIn,WindDirection,WindDirectionDegrees,WindSpeedMPH,WindSpeedGustMPH,Humidity,HourlyPrecipIn,Conditions,Clouds,dailyrainin,SoftwareType,DateUTC
2013-01-25 00:07:00,50.5,49.4,30.05,ENE,67,3.2,-999.0,96,-99.99,,,0.00,Acu-Link.com,2013-01-25 08:07:00,
2013-01-25 00:22:00,50.2,49.7,30.05,West,270,0.0,-999.0,98,-99.99,,,0.00,Acu-Link.com,2013-01-25 08:22:00,
2013-01-25 00:38:00,49.8,49.5,30.06,West,270,1.7,-999.0,99,-99.99,,,0.00,Acu-Link.com,2013-01-25 08:38:00,
2013-01-25 00:53:00,49.6,49.3,30.06,NW,315,2.7,-999.0,99,-99.99,,,0.00,Acu-Link.com,2013-01-25 08:53:00,
2013-01-25 01:16:00,49.6,49.3,30.06,WSW,247,2.7,-999.0,99,-99.99,,,0.00,Acu-Link.com,2013-01-25 09:16:00,
2013-01-25 01:31:00,49.6,49.3,30.06,WNW,292,3.7,-999.0,99,-99.99,,,0.00,Acu-Link.com,2013-01-25 09:31:00,
2013-01-25 01:46:00,49.6,49.3,30.05,SSW,202,0.0,-999.0,99,-99.99,,,0.00,Acu-Link.com,2013-01-25 09:46:00,
2013-01-25 02:01:00,49.8,49.5,30.06,ENE,67,0.0,-999.0,99,-99.99,,,0.00,Acu-Link.com,2013-01-25 10:01:00,
2013-01-25 02:16:00,50.4,50.1,30.05,ENE,67,2.2,-999.0,99,-99.99,,,0.00,Acu-Link.com,2013-01-25 10:16:00,
2013-01-25 02:32:00,50.5,50.2,30.05,ENE,67,0.0,-999.0,99,-99.99,,,0.00,Acu-Link.com,2013-01-25 10:32:00,
2013-01-25 02:47:00,50.4,50.1,30.04,ENE,67,0.0,-999.0,99,-99.99,,,0.00,Acu-Link.com,2013-01-25 10:47:00,
2013-01-25 03:02:00,50.0,49.7,30.04,NE,45,2.7,-999.0,99,-99.99,,,0.00,Acu-Link.com,2013-01-25 11:02:00,
2013-01-25 03:17:00,49.8,49.5,30.04,ESE,112,0.0,-999.0,99,-99.99,,,0.00,Acu-Link.com,2013-01-25 11:17:00,
2013-01-25 03:32:00,49.3,49.0,30.04,West,270,0.0,-999.0,99,-99.99,,,0.00,Acu-Link.com,2013-01-25 11:32:00,
2013-01-25 03:48:00,49.6,49.3,30.05,WNW,292,2.7,-999.0,99,-99.99,,,0.00,Acu-Link.com,2013-01-25 11:48:00,
2013-01-25 04:03:00,49.6,49.3,30.04,West,270,0.0,-999.0,99,-99.99,,,0.00,Acu-Link.com,2013-01-25 12:03:00,
2013-01-25 04:18:00,50.0,49.7,30.04,NE,45,0.0,-999.0,99,-99.99,,,0.00,Acu-Link.com,2013-01-25 12:18:00,
2013-01-25 04:33:00,50.4,50.1,30.04,ENE,67,0.0,-999.0,99,-99.99,,,0.00,Acu-Link.com,2013-01-25 12:33:00,
2013-01-25 04:48:00,50.2,49.9,30.04,West,270,0.0,-999.0,99,-99.99,,,0.00,Acu-Link.com,2013-01-25 12:48:00,
2013-01-25 05:04:00,50.2,49.9,30.03,WSW,247,0.0,-999.0,99,-99.99,,,0.00,Acu-Link.com,2013-01-25 13:04:00,
2013-01-25 05:19:00,50.0,49.7,30.03,WSW,247,0.0,-999.0,99,-99.99,,,0.00,Acu-Link.com,2013-01-25 13:19:00,
2013-01-25 05:34:00,50.4,49.9,30.03,South,180,0.0,-999.0,98,-99.99,,,0.00,Acu-Link.com,2013-01-25 13:34:00,
2013-01-25 05:49:00,50.7,49.6,30.02,SSW,202,0.0,-999.0,96,-99.99,,,0.00,Acu-Link.com,2013-01-25 13:49:00,
2013-01-25 06:05:00,50.2,49.7,30.02,WSW,247,3.7,-999.0,98,-99.99,,,0.00,Acu-Link.com,2013-01-25 14:05:00,
2013-01-25 06:20:00,51.1,49.4,30.03,SW,225,0.0,-999.0,94,-99.99,,,0.00,Acu-Link.com,2013-01-25 14:20:00,
2013-01-25 06:35:00,50.9,48.9,30.03,NE,45,0.0,-999.0,93,-99.99,,,0.00,Acu-Link.com,2013-01-25 14:35:00,
2013-01-25 06:50:00,49.8,49.3,30.04,East,90,0.0,-999.0,98,-99.99,,,0.00,Acu-Link.com,2013-01-25 14:50:00,
2013-01-25 07:05:00,49.8,49.5,30.03,ENE,67,0.0,-999.0,99,-99.99,,,0.00,Acu-Link.com,2013-01-25 15:05:00,
2013-01-25 07:21:00,49.6,49.3,30.03,NE,45,3.2,-999.0,99,-99.99,,,0.00,Acu-Link.com,2013-01-25 15:21:00,
2013-01-25 07:36:00,50.0,49.7,30.03,ENE,67,0.0,-999.0,99,-99.99,,,0.00,Acu-Link.com,2013-01-25 15:36:00,
2013-01-25 07:51:00,50.4,49.9,30.03,NE,45,0.0,-999.0,98,-99.99,,,0.00,Acu-Link.com,2013-01-25 15:51:00,
2013-01-25 08:06:00,50.7,49.9,30.03,East,90,2.7,-999.0,97,-99.99,,,0.00,Acu-Link.com,2013-01-25 16:06:00,
2013-01-25 08:21:00,51.1,50.0,30.02,NE,45,3.7,-999.0,96,-99.99,,,0.00,Acu-Link.com,2013-01-25 16:21:00,
2013-01-25 08:37:00,51.6,49.9,30.02,NNE,22,1.7,-999.0,94,-99.99,,,0.00,Acu-Link.com,2013-01-25 16:37:00,
2013-01-25 08:52:00,54.0,51.1,30.02,NE,45,0.0,-999.0,90,-99.99,,,0.00,Acu-Link.com,2013-01-25 16:52:00,
2013-01-25 09:07:00,59.5,51.9,30.02,NE,45,1.7,-999.0,76,-99.99,,,0.00,Acu-Link.com,2013-01-25 17:07:00,
2013-01-25 09:22:00,61.5,52.0,30.02,NW,315,1.1,-999.0,71,-99.99,,,0.00,Acu-Link.com,2013-01-25 17:22:00,
2013-01-25 09:37:00,62.6,52.3,30.02,East,90,2.7,-999.0,69,-99.99,,,0.00,Acu-Link.com,2013-01-25 17:37:00,
2013-01-25 09:53:00,64.9,52.8,30.03,WSW,247,1.7,-999.0,65,-99.99,,,0.00,Acu-Link.com,2013-01-25 17:53:00,
2013-01-25 10:08:00,67.8,53.4,30.03,West,270,2.7,-999.0,60,-99.99,,,0.00,Acu-Link.com,2013-01-25 18:08:00,
2013-01-25 10:23:00,70.9,52.9,30.03,West,270,3.7,-999.0,53,-99.99,,,0.00,Acu-Link.com,2013-01-25 18:23:00,
2013-01-25 10:38:00,65.3,52.4,30.03,SSE,157,0.0,-999.0,63,-99.99,,,0.00,Acu-Link.com,2013-01-25 18:38:00,
2013-01-25 10:53:00,64.0,51.6,30.02,West,270,4.2,-999.0,64,-99.99,,,0.00,Acu-Link.com,2013-01-25 18:53:00,
2013-01-25 11:09:00,64.8,52.8,30.02,WSW,247,0.0,-999.0,65,-99.99,,,0.00,Acu-Link.com,2013-01-25 19:09:00,
2013-01-25 11:24:00,66.0,51.7,30.01,NNE,22,0.0,-999.0,60,-99.99,,,0.00,Acu-Link.com,2013-01-25 19:24:00,
2013-01-25 11:39:00,68.0,52.7,29.99,ESE,112,0.0,-999.0,58,-99.99,,,0.00,Acu-Link.com,2013-01-25 19:39:00,
2013-01-25 11:54:00,68.0,52.7,29.99,East,90,0.0,-999.0,58,-99.99,,,0.00,Acu-Link.com,2013-01-25 19:54:00,
2013-01-25 12:10:00,67.1,52.3,29.99,West,270,3.7,-999.0,59,-99.99,,,0.00,Acu-Link.com,2013-01-25 20:10:00,
2013-01-25 12:25:00,62.8,52.5,29.98,SW,225,3.7,-999.0,69,-99.99,,,0.00,Acu-Link.com,2013-01-25 20:25:00,
2013-01-25 12:40:00,62.2,51.9,29.98,ESE,112,4.7,-999.0,69,-99.99,,,0.00,Acu-Link.com,2013-01-25 20:40:00,
2013-01-25 12:55:00,61.0,51.9,29.97,SW,225,3.7,-999.0,72,-99.99,,,0.00,Acu-Link.com,2013-01-25 20:55:00,
2013-01-25 13:10:00,61.9,52.0,29.96,West,270,5.3,-999.0,70,-99.99,,,0.00,Acu-Link.com,2013-01-25 21:10:00,
2013-01-25 13:26:00,61.9,52.0,29.96,SW,225,3.2,-999.0,70,-99.99,,,0.00,Acu-Link.com,2013-01-25 21:26:00,
2013-01-25 13:41:00,61.3,50.2,29.96,West,270,5.3,-999.0,67,-99.99,,,0.00,Acu-Link.com,2013-01-25 21:41:00,
2013-01-25 13:56:00,62.2,51.1,29.96,West,270,2.2,-999.0,67,-99.99,,,0.00,Acu-Link.com,2013-01-25 21:56:00,
2013-01-25 14:11:00,61.2,50.2,29.95,WNW,292,3.7,-999.0,67,-99.99,,,0.00,Acu-Link.com,2013-01-25 22:11:00,
2013-01-25 14:26:00,61.9,50.8,29.95,West,270,5.3,-999.0,67,-99.99,,,0.00,Acu-Link.com,2013-01-25 22:26:00,
2013-01-25 14:42:00,59.5,51.6,29.95,West,270,2.2,-999.0,75,-99.99,,,0.00,Acu-Link.com,2013-01-25 22:42:00,
2013-01-25 14:57:00,59.4,51.1,29.95,West,270,2.7,-999.0,74,-99.99,,,0.00,Acu-Link.com,2013-01-25 22:57:00,
2013-01-25 15:12:00,59.5,50.8,29.95,West,270,3.7,-999.0,73,-99.99,,,0.00,Acu-Link.com,2013-01-25 23:12:00,
2013-01-25 15:27:00,59.5,51.2,29.94,South,180,1.7,-999.0,74,-99.99,,,0.00,Acu-Link.com,2013-01-25 23:27:00,
2013-01-25 15:42:00,59.5,50.8,29.93,SSW,202,1.7,-999.0,73,-99.99,,,0.00,Acu-Link.com,2013-01-25 23:42:00,
2013-01-25 15:58:00,59.0,51.1,29.93,SSW,202,2.2,-999.0,75,-99.99,,,0.00,Acu-Link.com,2013-01-25 23:58:00,
2013-01-25 16:13:00,58.6,51.1,29.92,West,270,2.2,-999.0,76,-99.99,,,0.00,Acu-Link.com,2013-01-26 00:13:00,
2013-01-25 16:28:00,57.6,51.5,29.91,West,270,3.2,-999.0,80,-99.99,,,0.00,Acu-Link.com,2013-01-26 00:28:00,
2013-01-25 16:43:00,56.8,51.4,29.91,West,270,0.0,-999.0,82,-99.99,,,0.00,Acu-Link.com,2013-01-26 00:43:00,
2013-01-25 16:59:00,55.9,51.5,29.91,West,270,4.2,-999.0,85,-99.99,,,0.00,Acu-Link.com,2013-01-26 00:59:00,
2013-01-25 17:14:00,55.4,51.6,29.91,WSW,247,4.7,-999.0,87,-99.99,,,0.00,Acu-Link.com,2013-01-26 01:14:00,
2013-01-25 17:29:00,55.0,51.5,29.91,West,270,2.2,-999.0,88,-99.99,,,0.00,Acu-Link.com,2013-01-26 01:29:00,
2013-01-25 17:44:00,54.9,51.7,29.91,WSW,247,2.7,-999.0,89,-99.99,,,0.00,Acu-Link.com,2013-01-26 01:44:00,
2013-01-25 17:59:00,54.9,51.7,29.91,West,270,3.2,-999.0,89,-99.99,,,0.00,Acu-Link.com,2013-01-26 01:59:00,
2013-01-25 18:15:00,54.7,51.8,29.92,WSW,247,2.7,-999.0,90,-99.99,,,0.00,Acu-Link.com,2013-01-26 02:15:00,
2013-01-25 18:30:00,54.3,51.4,29.92,WSW,247,5.3,-999.0,90,-99.99,,,0.00,Acu-Link.com,2013-01-26 02:30:00,
2013-01-25 18:45:00,54.3,51.4,29.93,SW,225,5.3,-999.0,90,-99.99,,,0.00,Acu-Link.com,2013-01-26 02:45:00,
2013-01-25 19:01:00,54.3,51.4,29.92,WNW,292,3.7,-999.0,90,-99.99,,,0.00,Acu-Link.com,2013-01-26 03:01:00,
2013-01-25 19:16:00,53.8,51.5,29.93,West,270,4.2,-999.0,92,-99.99,,,0.00,Acu-Link.com,2013-01-26 03:16:00,
2013-01-25 19:32:00,53.6,51.3,29.92,West,270,5.8,-999.0,92,-99.99,,,0.00,Acu-Link.com,2013-01-26 03:32:00,
2013-01-25 19:47:00,53.2,51.2,29.92,West,270,5.3,-999.0,93,-99.99,,,0.00,Acu-Link.com,2013-01-26 03:47:00,
2013-01-25 20:02:00,53.2,51.5,29.91,West,270,6.3,-999.0,94,-99.99,,,0.00,Acu-Link.com,2013-01-26 04:02:00,
2013-01-25 20:18:00,53.1,51.4,29.92,West,270,4.7,-999.0,94,-99.99,,,0.00,Acu-Link.com,2013-01-26 04:18:00,
2013-01-25 20:33:00,52.7,51.3,29.92,SW,225,4.7,-999.0,95,-99.99,,,0.00,Acu-Link.com,2013-01-26 04:33:00,
2013-01-25 20:48:00,53.1,51.4,29.92,WNW,292,4.7,-999.0,94,-99.99,,,0.00,Acu-Link.com,2013-01-26 04:48:00,
2013-01-25 21:03:00,52.3,50.9,29.92,WSW,247,5.3,-999.0,95,-99.99,,,0.00,Acu-Link.com,2013-01-26 05:03:00,
2013-01-25 21:18:00,51.6,50.5,29.92,WNW,292,5.8,-999.0,96,-99.99,,,0.00,Acu-Link.com,2013-01-26 05:18:00,
2013-01-25 21:34:00,51.3,50.5,29.92,WSW,247,5.8,-999.0,97,-99.99,,,0.00,Acu-Link.com,2013-01-26 05:34:00,
2013-01-25 21:49:00,50.9,50.1,29.92,SW,225,6.3,-999.0,97,-99.99,,,0.00,Acu-Link.com,2013-01-26 05:49:00,
2013-01-25 22:04:00,50.5,50.0,29.92,West,270,5.8,-999.0,98,-99.99,,,0.00,Acu-Link.com,2013-01-26 06:04:00,
2013-01-25 22:19:00,50.5,50.2,29.92,NNW,337,7.3,-999.0,99,-99.99,,,0.00,Acu-Link.com,2013-01-26 06:19:00,
2013-01-25 22:34:00,50.2,49.9,29.92,WNW,292,3.7,-999.0,99,-99.99,,,0.00,Acu-Link.com,2013-01-26 06:34:00,
2013-01-25 22:50:00,50.0,49.7,29.92,West,270,5.3,-999.0,99,-99.99,,,0.00,Acu-Link.com,2013-01-26 06:50:00,
2013-01-25 23:05:00,50.2,49.9,29.92,West,270,5.3,-999.0,99,-99.99,,,0.00,Acu-Link.com,2013-01-26 07:05:00,
2013-01-25 23:20:00,49.8,49.5,29.92,West,270,6.3,-999.0,99,-99.99,,,0.00,Acu-Link.com,2013-01-26 07:20:00,
2013-01-25 23:36:00,49.6,49.3,29.92,SW,225,7.8,-999.0,99,-99.99,,,0.00,Acu-Link.com,2013-01-26 07:36:00,
2013-01-25 23:51:00,49.5,49.2,29.92,SW,225,8.9,-999.0,99,-99.99,,,0.00,Acu-Link.com,2013-01-26 07:51:00,